User: anonymous   Login
Location: Mississauga
(43.5802°N, 79.6166°W)
Time: 23:45:34
(UTC-04:00)
Language:

Cosmos 1437 Rocket - Orbit

View from above orbital plane
View from above orbital plane
View from above satellite
View from above satellite

Ground track
Ground track

The orbit data is extracted from the following two-line orbital elements,

1 13771U 83003B   15146.50614268  .00000983  00000-0  61336-4 0  9995
2 13771 081.1568 150.1342 0028172 337.5659 022.4331 15.08319855760265
Epoch (UTC): 26 May 2015 12:08:50
Eccentricity: 0.0028172
inclination: 81.1568°
perigee height: 522 km
apogee height: 561 km
right ascension of ascending node: 150.1342°
argument of perigee: 337.5659°
revolutions per day: 15.08319855
mean anomaly at epoch: 22.4331°
orbit number at epoch: 76026

The dashed part of the orbit path shows where the satellite is in the earth's shadow,  

DLR